This is the latest recevied weather packets stored in our database for station/object KJ4AJP. If no packets are shown the sender has not sent any weather packets the latest 10 day(s).
| Time | Temp. | Humidity | Pressure | Rain* | Wind** | Luminosity | Snow |
|---|---|---|---|---|---|---|---|
| 1777912075 | 25.56° C | 44% | 1011.6 hPa | 0 mm | - | 729 W/m² | - |
| 1777911771 | 25.56° C | 44% | 1011.7 hPa | 0 mm | - | 704 W/m² | - |
| 1777911468 | 25° C | 45% | 1011.8 hPa | 0 mm | - | 527 W/m² | - |
| 1777911165 | 25° C | 45% | 1012 hPa | 0 mm | - | 674 W/m² | - |
| 1777910863 | 25° C | 44% | 1012 hPa | 0 mm | - | 496 W/m² | - |
| 1777910559 | 25° C | 43% | 1012 hPa | 0 mm | - | 633 W/m² | - |
| 1777909650 | 24.44° C | 46% | 1012.4 hPa | 0 mm | - | 656 W/m² | - |
| 1777909348 | 24.44° C | 47% | 1012.5 hPa | 0 mm | - | 555 W/m² | - |
| 1777909045 | 23.89° C | 46% | 1012.5 hPa | 0 mm | - | 606 W/m² | - |
| 1777908742 | 23.89° C | 47% | 1012.6 hPa | 0 mm | - | 570 W/m² | - |
| 1777908136 | 23.33° C | 52% | 1012.5 hPa | 0 mm | - | 568 W/m² | - |
| 1777907528 | 23.33° C | 50% | 1012.5 hPa | 0 mm | - | 438 W/m² | - |
| 1777907224 | 22.78° C | 52% | 1012.7 hPa | 0 mm | - | 492 W/m² | - |
| 1777906921 | 22.78° C | 51% | 1012.8 hPa | 0 mm | - | 472 W/m² | - |
| 1777906619 | 22.78° C | 54% | 1012.7 hPa | 0 mm | - | 442 W/m² | - |
| 1777906314 | 22.22° C | 53% | 1012.6 hPa | 0 mm | - | 460 W/m² | - |
| 1777906011 | 22.78° C | 52% | 1012.7 hPa | 0 mm | - | 522 W/m² | - |
| 1777905404 | 21.67° C | 55% | 1012.7 hPa | 0 mm | - | 440 W/m² | - |
| 1777905102 | 21.67° C | 55% | 1012.5 hPa | 0 mm | - | 439 W/m² | - |
| 1777904192 | 21.11° C | 57% | 1012.6 hPa | 0 mm | - | 381 W/m² | - |
| 1777903890 | 20.56° C | 60% | 1012.5 hPa | 0 mm | - | 386 W/m² | - |
| 1777903587 | 20° C | 59% | 1012.7 hPa | 0 mm | - | 281 W/m² | - |
| 1777903282 | 20° C | 61% | 1012.7 hPa | 0 mm | - | 95 W/m² | - |
| 1777902070 | 19.44° C | 61% | 1012.9 hPa | 0 mm | - | 201 W/m² | - |
| 1777901769 | 19.44° C | 62% | 1012.9 hPa | 0 mm | - | 129 W/m² | - |
* Rain latest hour (hover to see other rain measurements)
** Current wind speed in m/s (hover to see current wind gust speed)